Winston-Salem, NC

2:24 PM EDT on March 28, 2017 (GMT -0400)
Smith Reynolds

Weather History for KINT - November, 2012

Change the Weather History Date:

Thursday, November 8, 2012

  Actual Average Record
Temperature  
Mean Temperature 48 °F -  
Max Temperature 61 °F 59 °F 77 °F (1987)
Min Temperature 35 °F 41 °F 20 °F (1967)
Degree Days  
Heating Degree Days 17    
Moisture  
Dew Point 23 °F    
Average Humidity 41    
Maximum Humidity 85    
Minimum Humidity 17    
Precipitation  
Precipitation 0.00 in - - ()
Sea Level Pressure  
Sea Level Pressure 30.06 in    
Wind  
Wind Speed 5 mph (NW)    
Max Wind Speed 15 mph    
Max Gust Speed 21 mph    
Visibility 10 miles    
Events      
Averages and records for this station are not official NWS values.
T = Trace of Precipitation, MM = Missing Value Source: NWS Daily Summary

Daily Weather History Graph

Daily Weather History Graph

Search for Another Location

Airport or City:

Trip Planner

Search our weather history database for the weather conditions in past years. The results will help you decide how hot, cold, wet, or windy it might be!

Date:

Astronomy

Nov. 08, 2012 Rise Set
Actual Time 6:51 AM EST 5:17 PM EST
Civil Twilight 6:24 AM EST 5:44 PM EST
Nautical Twilight 5:53 AM EST 6:15 PM EST
Astronomical Twilight 5:23 AM EST 6:45 PM EST
Moon 12:55 AM EST (11/8) 1:48 PM EST (11/8)
Length of Visible Light 11h 20m
Length of Day
10h 26m
Waning Crescent, 33% of the Moon is Illuminated
Nov 8
Waning Crescent
Nov 13
New
Nov 20
First Quarter
Nov 28
Full
Dec 6
Last Quarter

Hourly Weather History & Observations

Time (EST) Temp. Windchill Dew Point Humidity Pressure Visibility Wind Dir Wind Speed Gust Speed Precip Events Conditions
12:54 AM 39.0 °F - 32.0 °F 76% 29.97 in 10.0 mi Calm Calm - N/A   Overcast
1:54 AM 39.0 °F - 32.0 °F 76% 29.97 in 10.0 mi Calm Calm - N/A   Clear
2:54 AM 35.1 °F - 30.9 °F 85% 29.97 in 10.0 mi Calm Calm - N/A   Partly Cloudy
3:54 AM 36.0 °F - 30.9 °F 82% 29.98 in 10.0 mi Calm Calm - N/A   Clear
4:54 AM 39.9 °F 35.8 °F 30.0 °F 68% 29.99 in 10.0 mi NW 5.8 mph - N/A   Clear
5:54 AM 42.1 °F 39.2 °F 28.0 °F 58% 30.01 in 10.0 mi NW 4.6 mph - N/A   Clear
6:54 AM 42.1 °F 37.7 °F 27.0 °F 55% 30.03 in 10.0 mi NW 6.9 mph - N/A   Clear
7:54 AM 44.1 °F 40.1 °F 25.0 °F 47% 30.06 in 10.0 mi NW 6.9 mph - N/A   Clear
8:54 AM 48.0 °F - 24.1 °F 39% 30.07 in 10.0 mi NW 12.7 mph 19.6 mph N/A   Clear
9:54 AM 51.1 °F - 23.0 °F 33% 30.09 in 10.0 mi NNW 10.4 mph - N/A   Clear
10:54 AM 55.0 °F - 19.9 °F 25% 30.08 in 10.0 mi NNW 15.0 mph 20.7 mph N/A   Clear
11:54 AM 57.9 °F - 17.1 °F 20% 30.06 in 10.0 mi NW 15.0 mph - N/A   Clear
12:54 PM 60.1 °F - 18.0 °F 20% 30.04 in 10.0 mi NW 11.5 mph - N/A   Clear
1:54 PM 60.1 °F - 17.1 °F 19% 30.04 in 10.0 mi NW 15.0 mph 20.7 mph N/A   Clear
2:54 PM 61.0 °F - 16.0 °F 17% 30.03 in 10.0 mi NW 10.4 mph - N/A   Clear
3:54 PM 60.1 °F - 15.1 °F 17% 30.05 in 10.0 mi NW 10.4 mph - N/A   Clear
4:54 PM 57.9 °F - 16.0 °F 19% 30.06 in 10.0 mi NW 9.2 mph 16.1 mph N/A   Clear
5:54 PM 55.0 °F - 18.0 °F 23% 30.08 in 10.0 mi NW 10.4 mph - N/A   Clear
6:54 PM 51.1 °F - 19.9 °F 29% 30.11 in 10.0 mi Calm Calm - N/A   Clear
7:54 PM 50.0 °F - 21.0 °F 32% 30.12 in 10.0 mi NW 5.8 mph - N/A   Clear
8:54 PM 48.9 °F - 21.0 °F 33% 30.13 in 10.0 mi NW 5.8 mph - N/A   Clear
9:54 PM 46.9 °F - 21.9 °F 37% 30.14 in 10.0 mi NW 4.6 mph - N/A   Clear
10:54 PM 45.0 °F 41.8 °F 23.0 °F 42% 30.15 in 10.0 mi NW 5.8 mph - N/A   Clear
11:54 PM 46.0 °F 43.9 °F 21.9 °F 39% 30.16 in 10.0 mi WNW 4.6 mph - N/A   Clear